GW6228 Weather Reports


time (UTC)temp
C
wind
direction
speed
KPH
gust
KPH
rain 1hr
cm
rain 24hr
cm
rain mn
cm
humidity
%
barometer
mb
20260504070202 11 50 4.8 8.0 0.00 0.00 0.10 92 993.8
20260504050442 12 330 1.6 4.8 0.00 0.00 0.00 79 993.5
20260504045922 13 44 6.4 8.0 0.00 0.00 0.00 80 993.5
20260504045402 13 64 8.0 12.9 0.00 0.00 0.00 77 993.4
20260504044842 13 334 14.5 20.9 0.00 0.00 0.00 75 993.3
20260504044325 13 74 4.8 12.9 0.00 0.00 0.00 76 993.2
20260504043802 13 318 9.7 16.1 0.00 0.00 0.00 75 993.1
20260504043245 13 335 9.7 12.9 0.00 0.00 0.00 75 993.4
20260504042722 13 310 16.1 24.1 0.00 0.00 0.00 75 993.3
20260504042204 13 326 16.1 27.4 0.00 0.00 0.00 75 993.0
20260504041642 13 290 4.8 12.9 0.00 0.00 0.00 75 993.3
20260504041122 13 2 11.3 16.1 0.00 0.00 0.00 75 993.2
20260504040602 13 13 6.4 16.1 0.00 0.00 0.00 75 993.3
20260504040042 13 341 9.7 16.1 0.00 0.00 0.00 75 993.3
20260504035522 13 326 8.0 12.9 0.00 0.00 0.00 75 993.1
20260504035001 13 23 14.5 16.1 0.00 0.00 0.00 75 993.2
20260504034442 13 356 6.4 8.0 0.00 0.00 0.00 76 993.3
20260504033928 13 10 9.7 16.1 0.00 0.00 0.00 76 993.1
20260504033418 13 317 4.8 8.0 0.00 0.00 0.00 77 993.4
20260504032858 13 71 8.0 12.9 0.00 0.00 0.00 76 993.4
20260504032338 13 345 9.7 16.1 0.00 0.00 0.00 76 993.4
20260504031824 13 342 16.1 20.9 0.00 0.00 0.00 75 993.5
20260504031315 13 348 11.3 20.9 0.00 0.00 0.00 75 993.2
20260504030756 13 17 8.0 8.0 0.00 0.00 0.00 76 993.4
20260504030235 13 351 17.7 24.1 0.00 0.00 0.00 75 993.2
20260504025724 13 4 12.9 16.1 0.00 0.00 0.00 74 993.3
20260504025210 13 345 12.9 24.1 0.00 0.00 0.00 75 993.6
20260504024651 13 1 17.7 24.1 0.00 0.00 0.00 73 993.5
20260504024131 15 325 11.3 16.1 0.00 0.00 0.00 71 993.6
20260504023624 15 3 12.9 16.1 0.00 0.00 0.00 73 993.5
20260504023107 15 10 11.3 16.1 0.00 0.00 0.00 71 993.6
20260504022547 14 43 8.0 12.9 0.00 0.00 0.00 73 993.8
20260504022026 14 350 12.9 20.9 0.00 0.00 0.00 73 993.8
20260504021506 14 335 17.7 32.2 0.00 0.00 0.00 72 993.9
20260504020946 15 288 17.7 24.1 0.00 0.00 0.00 73 994.1
20260504020427 14 342 11.3 24.1 0.00 0.00 0.00 76 994.0
20260504015908 14 320 12.9 24.1 0.00 0.00 0.00 78 994.0
20260504015346 13 284 20.9 27.4 0.00 0.00 0.00 80 994.1
20260504014824 13 353 14.5 24.1 0.00 0.00 0.00 82 994.1
20260504014307 13 298 14.5 20.9 0.00 0.00 0.00 84 994.3
20260504013746 12 330 17.7 24.1 0.00 0.00 0.00 84 994.3
20260504013226 12 9 9.7 16.1 0.00 0.00 0.00 83 994.2
20260504012706 13 338 8.0 12.9 0.00 0.00 0.00 83 994.3
20260504012147 13 337 12.9 16.1 0.00 0.00 0.00 83 994.4
20260504011626 12 297 11.3 16.1 0.00 0.00 0.00 84 994.4
20260504011107 13 37 12.9 20.9 0.00 0.00 0.00 83 994.3
20260504010547 13 294 4.8 12.9 0.00 0.00 0.00 86 994.4
20260504010026 12 322 16.1 24.1 0.00 0.00 0.00 85 994.1
20260504005506 12 278 4.8 8.0 0.00 0.00 0.00 86 994.4
20260504004946 12 342 12.9 16.1 0.00 0.00 0.00 86 994.2
20260504004426 12 335 19.3 27.4 0.00 0.00 0.00 87 994.3
20260504003906 12 324 12.9 16.1 0.00 0.00 0.00 89 994.5
20260504003346 11 60 19.3 27.4 0.00 0.00 0.00 89 994.5
20260504002826 12 308 9.7 16.1 0.00 0.00 0.00 88 994.6
20260504002307 12 68 6.4 8.0 0.00 0.00 0.00 90 994.6
20260504001746 11 325 14.5 20.9 0.00 0.00 0.00 90 994.8
20260504001226 11 328 6.4 12.9 0.00 0.00 0.00 90 994.8
20260504000706 11 1 12.9 20.9 0.00 0.00 0.00 90 994.8
20260504000147 11 76 0.0 0.0 0.00 0.00 0.00 89 994.7
20260503235626 11 274 9.7 20.9 0.00 0.00 0.00 89 994.8
20260503235106 11 310 6.4 12.9 0.00 0.00 0.00 89 994.9
20260503234546 11 321 4.8 12.9 0.00 0.00 0.00 91 994.7
20260503234025 11 359 12.9 16.1 0.00 0.00 0.00 91 994.8
20260503233506 11 316 12.9 16.1 0.00 0.00 0.00 91 995.2
20260503232946 11 47 11.3 24.1 0.00 0.00 0.00 90 995.2
20260503232426 11 290 8.0 12.9 0.00 0.00 0.00 90 995.1
20260503231906 11 348 8.0 8.0 0.00 0.00 0.00 90 995.3
20260503231346 11 323 4.8 8.0 0.00 0.00 0.00 89 995.2
20260503230826 11 11 6.4 12.9 0.00 0.00 0.00 90 995.2
20260503230307 11 320 1.6 4.8 0.00 0.00 0.00 90 995.2
20260503225746 11 5 8.0 12.9 0.00 0.00 0.00 90 995.3
20260503225226 11 323 8.0 12.9 0.00 0.00 0.00 90 995.1
20260503224706 11 349 8.0 12.9 0.00 0.00 0.00 91 995.3
20260503224146 11 354 1.6 4.8 0.00 0.00 0.00 91 995.4
20260503223626 11 20 14.5 20.9 0.00 0.00 0.00 91 995.1
20260503223106 11 329 9.7 16.1 0.00 0.00 0.00 92 994.9
20260503222546 11 346 8.0 12.9 0.00 0.00 0.00 92 994.9
20260503222025 11 355 9.7 12.9 0.00 0.00 0.00 92 994.7
20260503221506 11 358 17.7 24.1 0.00 0.00 0.00 92 994.9
20260503220946 11 62 8.0 12.9 0.00 0.00 0.00 92 994.6
20260503220431 11 312 6.4 12.9 0.00 0.00 0.00 92 994.7
20260503215922 11 13 8.0 12.9 0.00 0.00 0.00 93 995.1
20260503215347 11 66 6.4 12.9 0.00 0.00 0.00 93 994.9
20260503214827 11 354 1.6 8.0 0.00 0.00 0.00 93 995.0
20260503214308 11 353 6.4 8.0 0.00 0.00 0.00 93 994.9
20260503213747 11 354 8.0 12.9 0.00 0.00 0.00 93 995.1
20260503213227 11 270 11.3 16.1 0.00 0.00 0.00 93 995.1
20260503212708 11 16 8.0 12.9 0.00 0.00 0.00 93 994.8
20260503212147 11 295 4.8 8.0 0.00 0.00 0.00 93 994.8
20260503211627 10 312 12.9 20.9 0.00 0.00 0.00 93 994.8
20260503211107 10 70 9.7 16.1 0.00 0.00 0.00 94 994.8
20260503210547 10 327 6.4 8.0 0.00 0.00 0.00 94 994.9
20260503210027 10 14 9.7 12.9 0.00 0.00 0.00 95 994.5
20260503205506 10 2 4.8 8.0 0.00 0.00 0.00 95 994.5
20260503204947 10 349 0.0 0.0 0.00 0.00 0.00 95 994.7
20260503204427 10 94 3.2 4.8 0.00 0.00 0.00 95 994.7
20260503203907 10 303 0.0 0.0 0.00 0.00 0.00 95 994.5
20260503203347 10 61 4.8 8.0 0.00 0.00 0.00 96 994.6
20260503202827 10 324 4.8 8.0 0.00 0.00 0.00 96 994.6
20260503202307 10 37 4.8 12.9 0.00 0.00 0.00 96 994.6
20260503201747 10 345 4.8 8.0 0.00 0.00 0.00 96 994.7
20260503201227 10 312 9.7 12.9 0.00 0.00 0.00 96 994.5
20260503200707 10 339 4.8 8.0 0.00 0.00 0.00 96 994.4
20260503200146 10 340 3.2 8.0 0.00 0.00 0.00 96 994.5
20260503195626 10 25 0.0 0.0 0.00 0.00 0.00 96 994.7
20260503195106 10 317 8.0 16.1 0.00 0.00 0.00 96 994.3
20260503194546 10 26 4.8 8.0 0.00 0.00 0.00 96 994.3
20260503194025 10 25 4.8 8.0 0.00 0.00 0.00 96 994.2
20260503193505 10 319 3.2 8.0 0.00 0.00 0.00 96 994.2
20260503192951 10 16 4.8 8.0 0.00 0.00 0.00 96 994.3
20260503192426 10 356 6.4 8.0 0.00 0.00 0.00 96 994.4
20260503191906 10 257 4.8 12.9 0.00 0.00 0.00 96 994.5
20260503191345 10 325 6.4 12.9 0.00 0.00 0.00 96 994.6
20260503190826 10 355 6.4 8.0 0.00 0.00 0.00 96 994.7
20260503190306 10 349 9.7 16.1 0.00 0.00 0.00 96 994.4
20260503185745 10 350 8.0 12.9 0.00 0.00 0.00 96 994.6
20260503185226 10 357 6.4 12.9 0.00 0.00 0.00 96 994.5
20260503184709 10 42 6.4 8.0 0.00 0.00 0.00 96 994.7
20260503184146 10 280 8.0 16.1 0.00 0.00 0.00 96 994.7
20260503183626 10 317 11.3 20.9 0.00 0.00 0.00 95 994.8
20260503183106 10 6 4.8 8.0 0.00 0.00 0.00 95 994.9
20260503182546 10 8 6.4 8.0 0.00 0.00 0.00 95 994.8
20260503182025 10 25 6.4 12.9 0.00 0.00 0.00 95 995.0
20260503181506 11 109 8.0 16.1 0.00 0.00 0.00 95 994.9
20260503180945 11 308 6.4 12.9 0.00 0.00 0.00 95 994.9
20260503180426 11 353 6.4 8.0 0.00 0.00 0.00 95 995.0
20260503175906 11 34 0.0 4.8 0.00 0.00 0.00 95 995.0
20260503175346 11 312 1.6 4.8 0.00 0.00 0.00 95 995.0
20260503174826 11 329 4.8 8.0 0.00 0.00 0.00 95 995.1
20260503174306 11 319 8.0 12.9 0.00 0.00 0.00 95 994.9
20260503173746 11 355 9.7 16.1 0.00 0.00 0.00 95 995.0
20260503173226 11 11 4.8 8.0 0.00 0.00 0.00 95 994.9
20260503172706 11 15 4.8 8.0 0.00 0.00 0.00 95 995.3
20260503172146 11 1 8.0 12.9 0.00 0.00 0.00 95 995.1
20260503171626 11 1 4.8 8.0 0.00 0.00 0.00 95 995.2
20260503171106 10 46 8.0 12.9 0.00 0.00 0.00 95 995.3
20260503170547 10 349 4.8 8.0 0.00 0.00 0.00 94 995.2
20260503160146 11 339 4.8 8.0 0.00 0.00 0.00 94 995.5
20260503150826 11 353 4.8 12.9 0.00 0.00 0.00 94 995.5
20260503150306 11 358 4.8 8.0 0.00 0.00 0.00 94 995.4
20260503131106 12 325 3.2 8.0 0.00 0.00 2.92 93 996.1
20260503130546 12 346 6.4 12.9 0.00 0.00 2.92 93 996.2
20260503120145 12 9 4.8 12.9 0.00 0.00 2.92 92 996.2
20260503110825 12 343 0.0 0.0 0.00 0.00 2.92 91 996.6
20260503110305 12 347 0.0 0.0 0.00 0.00 2.92 91 996.5
20260503081225 11 42 1.6 8.0 0.00 0.00 2.92 87 994.4
20260503080705 12 303 3.2 8.0 0.00 0.00 2.92 87 994.4